Location: Unspecified
(48.5670°N, 0.0000°E)
Time: 17:46:27
(UTC+00:00)

Vanguard 2 Rocket - Pass Details

Date: 29 August 2019
Orbit: 554 x 3327 km, 32.9° (Epoch: 15 October)

Event Time Altitude Azimuth Distance (km) Brightness Sun altitude
Rises 08:05:44 0° 270° (W) 6,383 10.7 27.4°
Reaches altitude 10° 08:11:48 10° 254° (WSW) 5,772 10.6 28.4°
Maximum altitude 08:22:08 18° 220° (SW) 5,506 10.8 30.0°
Drops below altitude 10° 08:33:22 10° 185° (S) 6,252 11.5 31.7°
Sets 08:40:36 0° 170° (S) 7,094 11.9 32.8°
